Total_Precipitation_Accumulation
1.27 1.45 1.56 1.55 1.54 1.60 1.66 1.64 1.67 1.67 1.67 1.64 1.59 1.63 1.68 1.64 1.57 1.63 1.60 1.55 1.56 1.49 1.46 1.49 1.38 1.28 1.37 1.40 1.44 1.44 1.37 1.40 1.44 0.94 0.75 0.80 1.02 1.15 1.23 1.12 1.08 1.06 1.06
1.16 1.28 1.43 1.53 1.54 1.56 1.55 1.60 1.66 1.67 1.66 1.59 1.55 1.56 1.60 1.62 1.58 1.58 1.56 1.52 1.52 1.49 1.45 1.47 1.46 1.38 1.38 1.40 1.49 1.48 1.39 1.32 1.41 1.23 0.97 0.97 1.09 1.22 1.26 1.24 1.22 1.18 1.05
1.11 1.22 1.36 1.47 1.46 1.46 1.41 1.48 1.67 1.77 1.74 1.62 1.57 1.57 1.59 1.65 1.60 1.53 1.59 1.55 1.45 1.39 1.37 1.43 1.47 1.46 1.39 1.34 1.43 1.47 1.41 1.35 1.39 1.41 1.17 1.04 1.13 1.28 1.43 1.45 1.39 1.38 1.24
1.02 1.16 1.28 1.40 1.38 1.34 1.32 1.34 1.49 1.65 1.74 1.67 1.56 1.54 1.60 1.71 1.71 1.66 1.71 1.65 1.51 1.38 1.28 1.29 1.37 1.51 1.53 1.51 1.52 1.49 1.51 1.59 1.57 1.56 1.40 1.24 1.26 1.37 1.54 1.63 1.66 1.59 1.50
0.98 1.06 1.14 1.26 1.34 1.30 1.26 1.29 1.39 1.50 1.55 1.60 1.62 1.56 1.59 1.82 2.03 2.14 1.99 1.70 1.52 1.43 1.26 1.18 1.25 1.52 1.73 1.89 1.93 1.77 1.78 1.94 1.91 1.87 1.74 1.54 1.41 1.48 1.61 1.60 1.70 1.65 1.65
0.97 1.02 1.05 1.19 1.33 1.32 1.25 1.28 1.41 1.51 1.51 1.54 1.59 1.58 1.55 1.74 2.17 2.37 1.97 1.57 1.43 1.39 1.33 1.19 1.20 1.46 1.65 1.82 1.97 1.92 1.92 2.09 2.21 2.17 2.01 1.73 1.40 1.29 1.38 1.60 1.83 2.02 2.02
0.98 1.01 1.06 1.18 1.25 1.31 1.29 1.31 1.42 1.51 1.52 1.51 1.52 1.54 1.51 1.58 1.97 2.17 1.91 1.54 1.39 1.32 1.26 1.22 1.24 1.33 1.48 1.51 1.67 1.73 1.71 1.86 2.08 2.19 2.16 1.73 1.49 1.39 1.60 1.87 1.92 2.03 1.94
1.00 1.00 1.04 1.12 1.16 1.26 1.31 1.33 1.45 1.51 1.48 1.47 1.48 1.47 1.45 1.52 1.85 2.07 1.88 1.57 1.45 1.38 1.34 1.25 1.18 1.22 1.36 1.54 1.64 1.62 1.51 1.54 1.75 1.93 2.12 1.93 1.71 1.73 2.05 2.35 2.46 2.45 2.17
0.98 0.94 0.97 1.04 1.09 1.18 1.25 1.32 1.42 1.52 1.47 1.42 1.39 1.44 1.42 1.45 1.76 2.09 1.95 1.60 1.52 1.43 1.40 1.32 1.19 1.14 1.36 1.56 1.52 1.49 1.41 1.42 1.54 1.75 1.91 1.99 2.01 2.15 2.46 2.90 3.09 3.07 2.78
0.94 0.86 0.90 0.97 1.01 1.10 1.17 1.25 1.33 1.37 1.38 1.40 1.35 1.36 1.37 1.35 1.59 1.99 2.10 1.64 1.53 1.43 1.42 1.36 1.42 1.37 1.48 1.50 1.39 1.47 1.59 1.45 1.37 1.40 1.47 1.53 1.57 1.72 2.14 2.58 2.96 3.12 2.88
0.92 0.86 0.88 0.92 0.97 1.04 1.12 1.14 1.22 1.29 1.31 1.38 1.37 1.34 1.33 1.35 1.45 1.73 2.07 1.78 1.60 1.46 1.44 1.43 1.37 1.53 1.53 1.49 1.45 1.42 1.61 1.52 1.41 1.48 1.46 1.39 1.38 1.49 1.67 2.00 2.52 2.94 2.97
0.87 0.87 0.92 0.96 0.98 1.01 1.06 1.06 1.10 1.22 1.28 1.33 1.37 1.41 1.39 1.37 1.43 1.64 1.87 1.83 1.71 1.51 1.43 1.33 1.30 1.49 1.52 1.54 1.50 1.55 1.61 1.57 1.47 1.50 1.44 1.34 1.34 1.44 1.59 1.78 2.05 2.37 2.52
0.86 0.85 0.91 1.00 1.02 1.03 1.03 1.03 1.08 1.15 1.24 1.29 1.31 1.32 1.36 1.32 1.42 1.68 1.65 1.67 1.68 1.58 1.57 1.60 1.53 1.61 1.62 1.51 1.48 1.54 1.48 1.38 1.44 1.50 1.41 1.25 1.21 1.32 1.43 1.55 1.66 1.87 2.08
0.84 0.84 0.89 0.95 1.01 1.05 1.01 0.96 0.98 1.08 1.20 1.23 1.25 1.21 1.18 1.22 1.42 1.62 1.52 1.49 1.57 1.64 1.71 1.69 1.67 1.69 1.64 1.57 1.51 1.39 1.27 1.28 1.38 1.39 1.32 1.21 1.13 1.19 1.32 1.42 1.54 1.64 1.93
0.78 0.77 0.83 0.85 0.94 1.05 1.04 0.98 0.97 0.99 1.17 1.31 1.27 1.22 1.25 1.36 1.54 1.69 1.62 1.57 1.61 1.68 1.77 1.81 1.74 1.69 1.68 1.55 1.37 1.22 1.17 1.24 1.30 1.22 1.23 1.25 1.22 1.21 1.22 1.26 1.44 1.56 1.78
0.75 0.73 0.76 0.80 0.85 0.94 0.99 1.02 1.13 1.12 1.15 1.17 1.18 1.24 1.23 1.38 1.48 1.50 1.53 1.59 1.70 1.77 1.81 1.79 1.61 1.43 1.38 1.31 1.23 1.16 1.13 1.13 1.12 1.15 1.21 1.21 1.20 1.21 1.22 1.21 1.32 1.49 1.64
0.74 0.74 0.75 0.78 0.81 0.87 0.89 0.90 1.04 1.18 1.24 1.19 1.13 1.15 1.23 1.30 1.33 1.36 1.40 1.47 1.57 1.62 1.58 1.43 1.32 1.26 1.22 1.17 1.11 1.08 1.08 1.03 1.03 1.11 1.17 1.17 1.14 1.17 1.21 1.23 1.27 1.40 1.52
0.75 0.81 0.82 0.79 0.82 0.87 0.86 0.82 0.86 0.95 1.06 1.14 1.16 1.14 1.18 1.23 1.28 1.29 1.34 1.46 1.52 1.39 1.28 1.27 1.25 1.21 1.22 1.23 1.18 1.12 1.07 1.05 1.07 1.07 1.09 1.10 1.12 1.19 1.21 1.18 1.20 1.33 1.43
0.80 0.83 0.85 0.83 0.84 0.88 0.87 0.84 0.85 0.86 0.89 0.96 1.04 1.14 1.23 1.25 1.26 1.31 1.30 1.29 1.28 1.23 1.17 1.19 1.19 1.21 1.25 1.26 1.19 1.14 1.11 1.06 1.01 1.02 1.00 0.99 1.02 1.12 1.14 1.09 1.14 1.26 1.36
0.87 0.96 0.96 0.89 0.88 0.92 0.93 0.94 0.92 0.90 0.92 0.92 0.96 1.04 1.22 1.30 1.30 1.32 1.27 1.22 1.21 1.17 1.14 1.18 1.18 1.20 1.25 1.27 1.22 1.16 1.13 1.07 1.01 0.99 0.95 0.94 0.95 1.03 1.09 1.08 1.13 1.20 1.23
0.92 0.97 1.04 0.96 0.91 0.96 1.02 1.02 0.98 0.98 0.99 0.96 0.92 1.00 1.28 1.34 1.24 1.15 1.17 1.19 1.21 1.22 1.23 1.24 1.23 1.22 1.21 1.21 1.21 1.15 1.10 1.06 1.00 0.98 0.95 0.94 0.96 1.01 1.02 1.07 1.11 1.12 1.16
0.93 0.96 1.00 0.98 0.96 1.01 1.07 1.06 1.04 1.04 1.03 1.01 0.97 1.01 1.15 1.10 1.08 1.08 1.10 1.13 1.16 1.20 1.25 1.32 1.29 1.24 1.23 1.23 1.22 1.16 1.08 1.00 0.96 0.97 0.97 0.93 0.92 0.94 0.96 1.00 1.04 1.07 1.11
0.96 0.99 1.02 1.02 0.98 1.07 1.11 1.08 1.07 1.06 1.05 1.01 1.03 1.03 1.05 1.06 1.08 1.13 1.17 1.16 1.17 1.21 1.21 1.24 1.25 1.22 1.19 1.17 1.16 1.19 1.13 1.00 0.94 0.99 1.04 0.97 0.90 0.89 0.91 0.94 0.94 1.00 1.04
1.00 1.02 1.04 1.04 1.02 1.03 1.08 1.12 1.09 1.08 1.07 1.06 1.08 1.09 1.08 1.10 1.11 1.13 1.16 1.18 1.20 1.19 1.16 1.16 1.16 1.15 1.13 1.11 1.09 1.08 1.04 1.02 1.09 1.12 1.08 1.06 0.98 0.89 0.90 0.92 0.90 0.93 1.00
1.03 1.04 1.06 1.09 1.09 1.08 1.08 1.10 1.09 1.10 1.09 1.08 1.08 1.10 1.08 1.09 1.09 1.10 1.12 1.14 1.16 1.15 1.09 1.10 1.15 1.16 1.12 1.07 1.02 1.02 1.13 1.21 1.26 1.33 1.32 1.23 1.07 0.95 0.93 0.92 0.90 0.92 0.97
1.02 1.03 1.06 1.10 1.11 1.09 1.10 1.12 1.11 1.10 1.13 1.10 1.06 1.08 1.09 1.09 1.07 1.07 1.08 1.11 1.15 1.11 1.06 1.05 1.09 1.10 1.08 1.05 1.04 1.10 1.19 1.20 1.24 1.29 1.35 1.34 1.15 0.97 0.94 0.97 0.92 0.92 0.97